• Join FlightAware (Why Join?)
  • Login
  • US Flag 
07:29PM EDT


 

Airport Tracker/Info


-or-


 

Live Flight TrackerFlight Track Log ✈ CTL21 ✈ 28-Jun-2013 ✈ KAZO - KBKL

Flight Track Log - Related Links

Times and Time Zones

All times are in EDT time to prevent confusion due to time zone crossing. See the CTL21 flight status page for this flight to view local times or setup timezone preferences in your user account.

Time Position Orientation Groundspeed Altitude Reporting Facility
EDT Latitude Longitude Course Direction KTS MPH feet Rate Location/Type
05:14PM 42.2267 -85.4167 118° Southeast 166 191 3,000  Level Chicago Center
05:15PM 42.2000 -85.3561 121° Southeast 180 207 3,100  Climbing Chicago Center
05:16PM 42.1697 -85.2808 118° Southeast 189 217 3,000 -60 Descending Chicago Center
05:17PM 42.1714 -85.1777 103° East  Level Estimated
05:17PM 42.1444 -85.2211 120° Southeast 187 215 3,000  Level Chicago Center
05:18PM 42.1601 -85.1110 103° East  Level Estimated
05:18PM 42.1203 -85.1617 119° Southeast 183 211 3,000  Level Chicago Center
05:19PM 42.0964 -85.1006 118° Southeast 183 211 3,100  Climbing Chicago Center
05:20PM 42.0706 -85.0389 119° Southeast 185 213 3,000 -60 Descending Chicago Center
05:21PM 42.0439 -84.9792 121° Southeast 186 214 3,000  Level Chicago Center
05:22PM 42.0122 -84.9069 121° Southeast 186 214 3,000  Level Chicago Center
05:23PM 41.9828 -84.8497 125° Southeast 186 214 3,100  Climbing Chicago Center
05:24PM 41.9531 -84.7919 125° Southeast 186 214 3,000 -60 Descending Chicago Center
05:25PM 41.9239 -84.7336 124° Southeast 187 215 3,000  Level Chicago Center
05:26PM 41.8936 -84.6750 125° Southeast 189 217 3,000  Level Chicago Center
05:27PM 41.8658 -84.6164 122° Southeast 188 216 3,100  Climbing Chicago Center
05:28PM 41.8386 -84.5553 121° Southeast 189 217 3,000  Descending Chicago Center
05:29PM 41.8069 -84.4817 120° Southeast 190 219 3,100  Climbing Chicago Center
05:30PM 41.7794 -84.4211 121° Southeast 190 219 3,100  Level Chicago Center
05:31PM 41.7528 -84.3597 120° Southeast 190 219 3,100 -60 Level Chicago Center
05:32PM 41.7289 -84.2964 117° Southeast 191 220 3,000 -60 Descending Chicago Center
05:33PM 41.7039 -84.2356 119° Southeast 190 219 3,000  Level Chicago Center
05:34PM 41.6783 -84.1736 119° Southeast 190 219 3,000  Level Chicago Center